Theta_e
313 313 312 312 311 310 309 310 310 310 311 311 310 303 302 306 309 314 313 312 312 309 310 315 315 315 316 318 317 317 319 322 322 321 320 318 318 318 317 318 317 318 318 317 316
317 316 314 313 312 312 311 309 309 310 310 310 308 303 303 308 316 314 312 308 308 309 314 314 315 315 317 318 317 318 320 321 319 318 317 317 317 318 318 318 318 318 317 314 314
318 318 317 316 314 313 313 312 310 308 307 308 306 302 305 311 317 314 312 308 309 310 314 314 315 316 316 317 317 317 319 318 316 316 317 317 317 317 317 318 318 319 319 316 314
319 319 319 318 318 316 314 313 312 311 309 307 305 302 307 317 316 313 309 309 310 314 314 314 315 316 316 316 316 315 315 315 315 316 317 317 317 317 317 318 317 317 317 317 315
318 319 319 319 319 318 317 315 314 313 311 309 305 302 314 316 313 311 309 309 312 314 314 315 316 316 317 317 316 315 316 315 316 316 316 316 316 317 317 317 317 316 315 315 315
315 316 317 318 319 319 319 318 316 314 313 312 306 302 315 313 310 311 310 311 313 313 314 315 316 316 316 316 316 317 317 317 317 317 316 316 317 315 317 315 315 316 315 314 314
311 313 315 318 318 319 319 319 318 316 314 314 305 309 311 310 311 310 312 313 314 314 315 315 314 315 316 317 317 317 317 319 318 317 316 315 318 317 317 316 315 315 315 314 315
307 310 312 314 317 318 319 318 318 317 316 312 301 309 308 307 310 310 313 314 314 313 315 315 315 316 317 316 316 317 317 322 318 316 317 315 324 322 317 315 316 316 315 315 314
304 306 308 311 314 317 318 318 318 317 314 305 307 308 306 309 310 311 312 314 314 314 313 313 316 317 316 316 320 319 323 325 323 316 317 317 323 322 316 315 316 317 316 315 315
303 303 304 308 311 314 317 318 317 312 309 308 308 307 305 307 311 311 311 313 314 315 315 316 316 316 317 319 331 331 325 325 323 319 317 319 320 320 320 319 318 318 317 316 315
302 303 303 304 307 311 315 318 317 312 309 316 309 304 305 309 310 311 312 313 314 315 317 315 316 323 320 319 320 320 321 323 323 317 314 319 320 320 320 320 320 319 317 317 315
299 299 300 302 305 310 314 316 315 304 317 312 308 305 308 309 311 311 312 313 314 317 315 315 317 318 316 317 317 318 320 323 322 315 313 319 319 319 320 317 316 317 316 315 316
297 298 298 300 305 313 313 314 310 303 309 315 309 309 308 309 310 312 312 313 314 316 316 319 319 315 314 315 316 318 321 326 321 317 317 315 325 328 318 314 314 314 314 313 313
296 296 297 298 307 306 311 310 312 314 320 319 311 310 309 309 309 311 311 312 311 315 315 316 316 314 314 316 316 320 318 317 316 318 325 316 337 328 324 319 315 313 314 314 312
295 295 296 296 300 306 308 308 310 313 325 322 309 306 309 311 311 310 310 310 313 312 314 316 314 315 317 318 317 319 313 315 315 317 318 321 326 334 324 320 316 315 314 313 312
295 295 295 297 298 302 306 307 308 316 324 316 310 311 310 310 311 310 310 309 311 312 311 314 310 313 315 311 313 313 314 314 315 317 328 326 324 337 335 320 315 315 313 312 311
295 295 294 293 301 304 305 307 313 320 317 316 313 311 313 311 312 312 311 310 312 314 315 313 313 311 310 313 312 313 316 332 335 327 328 314 317 326 322 313 312 315 313 312 311
294 294 293 292 297 297 303 309 314 319 321 311 312 312 314 311 312 313 313 313 310 312 316 317 318 312 311 314 315 314 316 322 331 328 322 313 319 324 315 314 310 313 313 311 310
294 293 294 297 300 299 307 311 318 317 316 313 312 315 314 312 312 313 315 315 314 311 315 316 316 309 310 309 312 314 314 313 316 312 318 317 318 318 311 312 311 311 313 312 310
293 293 295 298 299 301 306 311 310 314 311 311 318 316 317 313 313 313 315 314 315 313 310 313 316 310 309 308 309 311 311 314 315 329 327 321 320 322 315 313 312 312 312 313 311
293 294 298 295 301 303 305 309 309 310 311 311 315 318 319 314 313 314 316 314 313 314 311 312 315 313 309 310 312 310 311 312 315 317 323 324 322 316 315 312 313 313 313 312 313
293 294 294 297 301 303 305 307 307 310 311 312 311 312 316 316 314 315 316 314 310 311 312 311 315 319 314 310 309 311 311 312 316 319 315 314 320 312 311 309 309 311 313 313 312
294 293 294 298 303 304 302 305 306 308 311 312 311 311 310 311 315 315 315 310 309 310 311 311 318 322 317 311 308 311 311 312 314 311 317 322 321 311 309 308 309 311 311 312 311
294 295 296 298 296 298 304 305 305 305 306 303 307 308 311 311 309 313 314 310 308 309 308 310 314 320 324 319 314 311 312 311 313 317 317 317 320 315 312 311 310 310 311 311 310
294 292 291 296 298 298 300 299 301 301 299 299 304 301 303 308 312 312 311 309 308 307 310 310 317 312 312 313 311 312 312 312 312 314 318 320 317 317 317 313 312 311 311 310 310
294 294 293 294 294 297 296 297 297 297 298 299 298 300 304 304 302 303 303 311 312 309 311 310 316 309 311 311 311 312 312 312 313 313 314 315 315 313 313 314 312 312 311 310 309
291 291 293 292 294 295 293 294 294 295 296 296 297 299 302 299 297 298 300 301 303 308 310 312 313 314 321 309 310 316 312 313 313 312 313 315 314 314 313 313 313 313 313 311 309
Wind_Speed
7 6 6 6 7 10 10 10 10 10 11 12 12 10 7 7 5 4 7 3 4 4 3 3 5 6 5 4 2 2 6 8 10 5 1 3 5 5 2 10 4 7 8 4 8
10 9 8 7 9 9 10 12 13 13 13 13 13 11 7 7 6 11 6 7 5 4 5 8 8 8 4 4 3 5 5 8 6 4 5 2 7 7 5 10 13 13 11 5 10
12 13 12 11 9 9 9 8 10 13 15 15 13 11 7 4 5 3 9 6 5 4 4 5 7 8 5 4 6 4 6 6 3 6 5 7 9 11 10 13 15 16 13 14 13
11 12 13 14 13 12 11 12 12 12 13 14 14 9 7 3 3 3 7 6 4 4 5 7 7 5 6 6 5 5 10 10 3 2 4 6 8 10 14 20 8 7 6 9 15
9 10 12 15 14 13 13 13 13 14 14 15 15 9 3 6 3 5 4 4 4 5 9 9 10 7 7 3 4 9 11 5 8 7 7 11 15 15 19 18 14 10 8 11 13
9 10 12 13 13 15 13 12 13 13 14 16 15 8 6 8 3 4 5 4 4 7 7 9 6 4 1 2 6 5 8 11 7 9 8 10 14 2 8 3 12 18 14 13 14
13 11 12 12 13 13 15 13 12 12 14 15 12 4 6 6 3 3 5 6 5 4 6 5 3 5 2 2 2 5 10 11 10 7 4 4 13 16 16 9 9 10 14 15 15
17 15 14 13 12 12 12 13 13 12 14 13 4 4 6 3 4 5 7 4 3 3 2 3 1 2 2 3 3 5 4 6 7 6 2 4 11 2 6 7 11 12 12 14 16
18 17 17 15 13 14 14 13 12 12 12 6 3 4 4 1 4 7 6 4 6 5 5 5 2 0 3 4 6 7 9 10 4 6 2 8 11 5 4 8 12 12 12 13 14
18 18 18 16 14 13 14 11 12 9 2 3 2 4 4 1 4 6 5 9 3 8 5 4 4 5 7 8 6 7 10 9 9 4 7 11 23 22 20 21 22 18 16 14 14
14 17 18 17 15 14 12 6 4 3 5 7 1 3 3 3 3 7 8 9 6 7 8 6 8 10 14 15 16 9 11 14 11 3 5 13 19 22 20 21 22 19 16 16 16
15 19 21 19 15 15 8 3 2 1 7 13 10 7 3 5 5 9 9 10 8 10 8 5 12 12 3 8 10 11 12 12 10 1 4 14 22 24 18 9 10 11 10 12 13
16 18 21 21 13 2 6 1 2 0 4 7 7 7 5 10 6 13 13 7 8 12 14 14 1 2 8 9 11 12 11 4 7 7 12 12 12 6 5 6 6 6 4 4 10
14 17 19 24 3 8 2 6 7 2 4 5 8 7 7 7 6 10 18 4 6 14 11 12 11 7 9 14 12 13 3 7 6 6 5 2 7 5 9 8 7 7 7 7 9
13 15 16 15 12 5 5 9 6 2 5 6 3 3 7 10 11 4 8 4 10 11 7 6 8 10 11 6 11 1 2 3 3 6 8 6 4 6 4 5 4 5 5 5 9
13 15 18 8 8 9 10 5 2 4 8 4 3 6 9 9 3 6 9 2 3 6 6 3 1 6 4 4 2 8 3 3 3 4 5 4 5 4 3 1 3 5 6 8 11
16 17 17 12 3 3 2 2 2 6 1 4 5 7 14 9 8 9 13 12 10 8 13 7 7 4 4 5 4 6 5 2 3 4 5 2 5 11 5 3 3 8 9 10 11
18 21 15 11 5 11 3 1 6 6 5 3 3 6 10 9 10 10 12 12 17 14 6 12 8 14 13 8 6 11 5 5 5 3 2 2 6 5 2 1 5 7 11 11 12
19 14 10 3 5 8 3 4 3 1 2 9 9 4 9 9 5 12 16 12 11 18 11 9 7 3 7 2 3 8 8 2 4 2 3 7 9 10 8 6 9 9 12 12 13
13 11 5 5 4 7 3 9 4 4 1 5 10 12 13 13 11 13 13 10 17 20 17 4 4 5 4 3 5 4 4 3 4 4 6 6 5 10 4 9 11 13 13 14 13
8 4 2 7 9 3 6 6 3 8 1 3 4 2 6 8 13 11 6 4 15 13 23 11 8 6 5 11 14 6 7 6 3 4 4 4 5 1 2 2 11 11 13 13 15
3 2 6 5 4 2 7 1 5 6 5 1 2 3 4 9 12 12 12 7 4 9 14 19 7 8 8 3 6 14 14 17 6 6 5 2 7 3 2 2 1 5 10 12 12
3 3 3 4 3 7 3 1 3 3 4 4 4 4 1 1 7 15 8 2 8 12 13 12 5 4 3 4 4 8 14 16 14 3 8 5 4 1 3 3 4 3 10 10 11
1 2 1 2 2 4 2 3 3 3 2 5 2 5 3 4 6 2 7 2 2 9 3 7 3 10 10 3 8 7 16 19 18 7 7 15 11 5 5 6 7 7 10 11 11
2 2 1 2 2 4 2 6 1 5 6 9 3 7 1 4 3 5 3 3 2 4 3 3 4 5 12 8 4 5 11 21 25 24 12 8 21 18 7 7 8 8 9 10 13
2 2 1 3 4 3 7 6 7 5 8 4 4 10 5 1 1 4 10 2 3 9 10 5 2 1 4 7 8 5 11 15 24 22 25 20 16 7 9 7 11 9 8 10 13
3 0 3 7 6 2 4 5 7 7 3 2 5 6 2 5 9 12 8 12 6 5 11 6 4 4 5 2 2 8 20 18 14 14 21 21 19 16 13 11 13 13 12 13 12
Wind_Direction
316 315 328 335 337 342 341 335 328 328 334 333 337 338 329 323 299 212 234 222 201 218 197 194 190 175 181 190 240 272 248 256 254 268 353 126 231 161 337 263 212 203 265 45 138
310 314 317 322 335 335 339 342 338 338 334 336 336 337 331 323 269 239 235 211 216 200 196 194 178 174 180 184 197 235 251 267 8 329 288 258 262 280 251 233 240 240 232 193 176
293 296 309 310 308 320 323 323 336 341 340 338 335 331 327 322 264 172 211 203 210 186 215 206 191 194 197 196 186 196 246 359 294 301 291 284 270 248 260 259 252 249 233 198 209
301 309 301 302 308 312 320 329 334 339 342 336 326 328 326 256 261 132 172 191 200 191 180 184 194 197 216 207 179 251 243 273 307 319 279 273 297 257 248 257 299 313 287 201 211
304 303 307 300 303 308 314 322 328 331 332 330 333 339 348 233 257 174 162 189 177 180 206 205 206 213 215 200 195 242 263 282 270 273 276 277 262 272 270 265 262 234 248 236 216
336 333 312 296 303 301 302 307 313 320 325 330 330 331 258 247 130 156 152 160 204 205 191 222 254 233 253 225 227 0 295 278 275 273 263 267 276 301 260 322 253 238 231 233 224
343 336 335 320 302 300 303 298 302 309 316 320 314 313 261 276 168 162 150 183 186 208 200 205 242 231 93 231 274 298 294 281 242 249 258 297 266 232 252 238 255 232 229 231 226
347 334 336 327 318 302 300 303 296 301 306 310 292 253 264 198 186 159 170 133 121 153 151 153 147 87 311 51 238 254 248 271 118 180 162 238 276 296 174 222 242 235 225 221 219
342 335 326 331 328 313 300 303 294 298 300 287 262 249 250 155 197 175 174 165 140 127 92 109 164 277 166 232 259 209 269 230 244 209 223 221 286 305 200 234 247 243 224 224 216
340 342 336 320 323 322 305 299 297 300 292 237 239 258 188 186 147 160 164 164 157 141 118 176 196 221 216 204 229 254 240 250 260 150 226 253 265 274 269 254 254 255 255 219 216
352 352 341 324 315 316 310 302 240 198 221 233 240 314 145 107 143 193 173 163 155 200 194 196 214 213 222 224 257 291 277 275 280 120 286 266 278 283 279 270 261 254 248 238 212
337 341 338 328 313 308 274 237 312 117 291 231 241 250 188 179 171 190 178 185 193 206 184 179 236 235 215 274 242 249 265 273 281 181 267 296 292 285 287 275 272 255 245 239 214
333 337 339 330 320 353 238 250 240 275 257 229 196 210 195 172 219 186 190 200 202 211 204 231 156 287 194 214 224 230 247 263 279 309 254 295 279 264 211 229 226 220 209 217 219
323 331 340 339 303 334 272 298 235 66 270 211 210 205 161 168 225 159 195 206 202 212 209 242 240 181 204 229 223 255 232 244 279 307 297 20 289 298 268 264 217 220 203 197 198
329 333 335 339 304 296 321 331 212 114 256 117 130 47 168 181 128 165 173 210 198 180 178 181 184 202 215 222 196 194 124 215 250 271 313 190 255 263 254 268 188 182 173 172 178
325 329 332 339 300 259 299 314 261 160 233 156 138 170 163 197 144 121 173 254 359 171 238 270 39 214 233 92 219 127 160 210 248 263 248 180 231 277 237 192 140 142 147 153 158
318 321 316 296 285 346 190 149 209 227 160 184 183 180 201 182 173 180 178 187 179 182 208 190 202 154 159 136 137 193 199 240 233 213 255 139 226 259 256 219 188 164 155 156 158
314 316 306 261 266 268 290 127 248 181 200 105 136 174 191 177 210 192 181 204 230 233 201 203 206 187 180 217 180 193 230 235 257 242 12 139 234 252 43 111 140 154 154 157 168
317 318 300 284 241 201 216 210 229 260 185 154 145 160 207 206 225 193 215 216 214 205 212 200 217 109 195 165 193 159 213 359 296 113 273 239 249 267 173 185 187 165 167 175 179
321 316 283 319 201 197 219 230 238 246 19 158 209 200 189 193 193 197 198 236 222 210 227 226 208 205 145 194 217 235 132 159 223 230 248 233 248 251 204 219 199 195 191 187 184
312 314 110 340 167 219 213 232 226 266 111 214 246 174 242 171 209 198 208 235 209 208 204 219 234 131 154 207 187 175 206 224 270 238 255 279 241 57 298 163 198 204 199 190 188
319 297 354 338 181 202 227 191 308 264 164 150 317 299 248 206 187 222 220 224 210 183 206 211 238 206 201 67 280 242 213 204 215 196 238 347 257 140 137 140 221 244 187 194 189
328 285 344 11 234 205 231 301 296 279 246 184 226 232 141 309 238 209 230 26 173 193 182 171 208 150 251 212 197 223 214 235 238 324 210 193 241 163 161 213 215 214 175 181 187
336 297 17 35 354 320 215 186 242 19 320 336 282 345 320 216 224 308 246 97 255 214 12 199 215 228 223 61 137 199 204 208 212 220 217 227 250 169 202 214 205 195 186 179 186
2 60 343 12 60 345 331 31 272 3 354 15 105 39 339 302 252 225 213 354 245 223 154 220 257 235 262 265 226 232 211 206 214 221 216 244 227 246 233 215 195 184 182 187 196
7 323 247 27 341 14 26 41 32 12 6 24 33 346 28 74 334 301 357 193 189 218 183 189 243 265 260 251 239 257 243 224 223 229 247 263 266 288 300 263 216 241 242 226 220
47 48 296 19 19 42 32 23 22 359 63 41 345 335 1 345 301 279 263 282 284 298 209 169 186 182 234 141 155 268 233 225 222 220 230 238 247 263 261 256 258 264 244 230 232